map of CUC home
CUC - Airport
Location
City:  Cúcuta, Norte de Santander, Colombia
Name:Camilo Daza International Airport
ICAO:SKCC
IATA:CUC

Details
Type:Airport (Aerodrome, Airfield)
Use:International (customs port of entry)
Latitude:7°55'53"N (7.931389)
Longitude:72°30'51"W (-72.514166)
Elevation:1098 ft (335 m)
Variation:8.93°W (WMM2015v2 magnetic declination)
-0.13° annual change
Runways:2
Longest:7700 × 148 ft (2347 × 45 m), paved

Time
Time Zone:UTC-5
Local Time:

Weather
METAR:SKCC 041500Z 02004KT 340V070 7000 VCFG SCT015 SCT090 25/21 A2999

Related Locations
Nearby:
Farthest:TSY: 12374 mi / 19914 km
Tasikmalaya (Tasik) [Cibeureum (Wiriadinata)], JB, ID

Find:

   beyond  
but within

Other Information
Maps:
NOTAMs:
Links:
Sources:

  
  • flag of Colombia
  • flag of Norte de Santander
  • flag of Cúcuta
  

Sectional Chart

Flight Planning
at skyvector.com

Satellite Image

Google Maps Satellite view

 

Copyright © 2004-2019 Karl L. Swartz. All rights reserved.
The Great Circle Mapper name and logo are trademarks of the Great Circle Mapper.
All other trademarks mentioned herein belong to their respective owners.
Please see credits for attibutions and further copyright information.

  Follow gcmap on Facebook Follow gcmap on Twitter GCmap on LinkedIn

hCard Microformat

Geo Microformat